#timestamp,LO_Frequency,Hit,StdDev 
1580479215.9,286047000.8,N
1580479235.7,286046998.5,N
1580479255.6,286046998.2,N
1580479275.4,286046998.2,N
1580479295.2,286047002.5,N
1580479315.1,286047002.3,N
1580479316.0,286047002.3,N
1580479335.8,286047004.3,N
1580479355.6,286047000.4,N
1580479375.5,286046998.5,N
1580479395.3,286046999.2,N
1580479415.1,286046995.0,N
1580479435.9,286046993.7,Y
1580479455.7,286046993.8,P
1580479475.6,286046998.0,N
1580479495.4,286046996.8,N
1580479515.2,286046997.3,N
1580479535.1,286046997.1,N
1580479536.0,286046997.1,N
1580479555.8,286046997.7,N
1580479575.7,286046997.1,N
1580479595.5,286046996.7,N
1580479615.3,286046997.2,N
1580479635.2,286046999.5,N
1580479655.0,286046997.2,N
1580479655.9,286046997.2,N
1580479675.7,286046998.0,N
1580479695.6,286046996.2,N
1580479715.4,286046997.1,N
1580479735.3,286046997.8,N
1580479755.1,286046996.7,N
1580479775.8,286046999.4,N
1580479795.7,286046999.3,N
1580479815.5,286046997.0,N
1580479835.4,286046998.8,N
1580479855.2,286046999.3,N
1580479875.0,286046996.8,N
1580479875.9,286046996.8,N
1580479895.8,286046997.8,N
1580479915.6,286046996.5,N
1580479935.4,286046999.4,N
1580479955.3,286046998.7,N
1580479975.1,286046998.6,N
1580479995.9,286046999.3,N
1580480015.7,286046997.5,N
1580480035.5,286046995.9,Y
1580480055.4,286046997.4,P
1580480075.2,286046997.6,P
1580480095.0,286046997.1,P
1580480095.9,286046997.1,Y
1580480115.8,286046998.6,P
1580480135.6,286047000.8,N
1580480155.5,286046998.4,N
1580480175.3,286046998.8,N
1580480195.1,286046999.1,N
1580480215.9,286046999.0,N
1580480235.7,286046998.6,N
1580480255.5,286046998.6,N
1580480275.4,286047001.1,N
1580480295.2,286046998.6,N
1580480315.1,286046999.0,N
1580480316.0,286046999.0,N
1580480335.8,286046998.9,N
1580480355.6,286046996.6,Y
1580480375.5,286046999.3,P
1580480395.3,286046998.5,P
1580480415.2,286047001.0,N
1580480435.9,286047001.0,N
1580480455.7,286047000.5,N
1580480475.6,286047002.9,N
1580480495.4,286047006.0,Y
1580480515.2,286047004.2,P
1580480535.1,286047001.4,N
1580480536.0,286047001.4,N
1580480555.8,286047004.9,Y
1580480575.7,286047005.7,P
1580480595.5,286047004.4,N
1580480615.3,286047005.9,P
1580480635.2,286047005.2,Y
1580480655.0,286046999.2,P
1580480655.9,286046999.2,N
1580480675.8,286046994.9,N
1580480695.6,286046995.9,N
1580480715.4,286046994.6,N
1580480735.3,286046992.3,N
1580480755.1,286046992.5,N
1580480775.8,286046993.0,N
1580480795.7,286046994.4,N
1580480815.5,286046993.4,N
1580480835.3,286046994.3,N
1580480855.2,286046994.6,N
1580480875.0,286046993.9,N
1580480875.9,286046993.9,N
1580480895.8,286046993.7,N
1580480915.6,286046995.2,N
1580480935.4,286046994.2,N
1580480955.3,286046994.3,N
1580480975.1,286046992.2,N
1580480995.9,286046994.0,N
1580481015.7,286046991.7,Y
1580481035.5,286046998.4,P
1580481055.4,286046998.4,N
1580481075.2,286046998.5,N
1580481095.0,286046998.4,N
1580481095.9,286046998.4,N
1580481115.8,286046998.3,N
1580481135.6,286046999.3,N
1580481155.5,286046999.3,N
1580481175.3,286046999.3,N
1580481195.1,286046999.4,N
1580481215.9,286046998.4,N
1580481235.7,286046998.3,N
1580481255.5,286046998.9,N
1580481275.4,286047000.7,N
1580481295.2,286046998.7,N
1580481315.1,286046999.3,N
1580481316.0,286046999.3,N
1580481335.8,286046999.0,N
1580481355.6,286046998.4,N
1580481375.5,286046998.8,N
1580481395.3,286047001.0,N
1580481415.1,286046999.0,N
1580481435.9,286047001.2,N
1580481455.7,286046998.5,N
1580481475.6,286047002.4,N
1580481495.4,286046999.8,N
1580481515.2,286047001.2,N
1580481535.1,286046998.6,N
1580481536.0,286046998.6,N
1580481555.8,286047001.0,N
1580481575.6,286046998.9,N
1580481595.5,286046998.3,N
1580481615.3,286046998.4,N
1580481635.2,286046998.7,N
1580481655.9,286046998.8,N
1580481675.7,286046999.1,N
1580481695.6,286046996.5,Y
1580481715.4,286046998.9,P
1580481735.2,286046999.2,P
1580481755.1,286046998.8,P
1580481756.0,286046998.8,Y
1580481775.8,286047000.8,P
1580481795.7,286047000.5,N
1580481815.5,286047001.2,N
1580481835.3,286046998.8,N
1580481855.2,286046996.5,Y
1580481875.0,286046997.8,P
1580481875.9,286046997.8,N
1580481895.8,286046998.3,N
1580481915.6,286047001.2,N
1580481935.4,286047000.6,N
1580481955.3,286047001.2,N
1580481975.1,286047001.0,N
1580481995.8,286046998.7,N
1580482015.7,286046997.6,N
1580482035.5,286046995.2,Y
1580482055.4,286046993.4,P
1580482075.2,286046994.5,N
1580482095.0,286046993.3,N
1580482095.9,286046993.3,N
1580482115.8,286046998.0,N
1580482135.6,286046995.5,N
1580482155.4,286046995.0,N
1580482175.3,286046995.2,N
1580482195.1,286046999.2,N
1580482215.9,286046997.0,N
1580482235.7,286046997.1,N
1580482255.5,286046999.5,N
1580482275.4,286046999.0,N
1580482295.2,286046998.5,N
1580482315.0,286046999.4,N
1580482315.9,286046999.4,N
1580482335.8,286046999.6,N
1580482355.6,286046998.8,N
1580482375.5,286047000.0,N
1580482395.3,286047000.3,N
1580482415.1,286047000.7,N
1580482435.9,286046999.8,N
1580482455.7,286047001.0,N
1580482475.5,286047000.8,N
1580482495.4,286047000.1,N
1580482515.2,286047001.5,N
1580482535.1,286047003.7,N
1580482536.0,286047003.7,N
1580482555.8,286047005.1,N
1580482575.6,286047006.0,N
1580482595.5,286047004.6,N
1580482615.3,286047005.6,N
1580482635.1,286047006.9,N
1580482655.9,286047002.9,N
1580482675.7,286047005.9,N
1580482695.6,286047005.8,N
1580482715.4,286047003.9,N
1580482735.2,286047002.0,N
1580482755.1,286047002.0,N
1580482756.0,286047002.0,N
1580482775.8,286047001.8,N
1580482795.6,286047002.5,N
